| time (UTC) | temp F | wind direction | speed MPH | gust MPH | rain 1hr in | rain 24hr in | rain mn in | humidity % | barometer mb |
| 20260906143020 | 71 | 146 | 1.0 | 6.0 | 0.00 | 0.00 | 0.00 | 84 | 1018.8 |
| 20260906142551 | 71 | 92 | 0.0 | 5.0 | 0.00 | 0.00 | 0.00 | 84 | 1018.7 |
| 20260906142027 | 71 | 41 | 1.0 | 4.0 | 0.00 | 0.00 | 0.00 | 85 | 1018.6 |
| 20260906141619 | 70 | 134 | 0.0 | 2.0 | 0.00 | 0.00 | 0.00 | 85 | 1018.7 |
| 20260906141039 | 70 | 143 | 0.0 | 5.0 | 0.00 | 0.00 | 0.00 | 86 | 1018.7 |
| 20260906140515 | 70 | 144 | 0.0 | 5.0 | 0.00 | 0.00 | 0.00 | 85 | 1018.8 |
| 20260906140050 | 70 | 37 | 0.0 | 3.0 | 0.00 | 0.00 | 0.00 | 85 | 1018.8 |
| 20260906135527 | 69 | 120 | 0.0 | 2.0 | 0.00 | 0.00 | 0.00 | 86 | 1018.8 |
| 20260906135004 | 68 | 84 | 0.0 | 4.0 | 0.00 | 0.00 | 0.00 | 87 | 1018.9 |
| 20260906134530 | 68 | 94 | 0.0 | 4.0 | 0.00 | 0.00 | 0.00 | 87 | 1018.7 |
| 20260906134007 | 68 | 108 | 1.0 | 4.0 | 0.00 | 0.00 | 0.00 | 86 | 1018.6 |
| 20260906133540 | 67 | 68 | 1.0 | 3.0 | 0.00 | 0.00 | 0.00 | 86 | 1018.7 |
| 20260906133031 | 67 | 68 | 1.0 | 4.0 | 0.00 | 0.00 | 0.00 | 87 | 1018.7 |
| 20260906132549 | 66 | 136 | 0.0 | 4.0 | 0.00 | 0.00 | 0.00 | 88 | 1018.8 |
| 20260906132022 | 66 | 79 | 0.0 | 4.0 | 0.00 | 0.00 | 0.00 | 88 | 1018.7 |
| 20260906131606 | 66 | 58 | 1.0 | 6.0 | 0.00 | 0.00 | 0.00 | 88 | 1018.8 |
| 20260906131034 | 66 | 20 | 2.0 | 6.0 | 0.00 | 0.00 | 0.00 | 88 | 1018.8 |
| 20260906130516 | 66 | 71 | 0.0 | 1.0 | 0.00 | 0.00 | 0.00 | 90 | 1018.7 |
| 20260906130058 | 65 | 77 | 0.0 | 3.0 | 0.00 | 0.00 | 0.00 | 90 | 1018.8 |
| 20260906125525 | 65 | 98 | 0.0 | 3.0 | 0.00 | 0.00 | 0.00 | 91 | 1018.7 |
| 20260906125055 | 64 | 326 | 0.0 | 3.0 | 0.00 | 0.00 | 0.00 | 92 | 1018.7 |
| 20260906124533 | 64 | 71 | 0.0 | 2.0 | 0.00 | 0.00 | 0.00 | 94 | 1018.6 |
| 20260906124047 | 63 | 31 | 0.0 | 0.0 | 0.00 | 0.00 | 0.00 | 95 | 1018.7 |
| 20260906123524 | 63 | 354 | 0.0 | 0.0 | 0.00 | 0.00 | 0.00 | 95 | 1018.5 |
| 20260906123014 | 62 | 89 | 0.0 | 0.0 | 0.00 | 0.00 | 0.00 | 95 | 1018.4 |
| 20260906122527 | 62 | 89 | 0.0 | 0.0 | 0.00 | 0.00 | 0.00 | 96 | 1018.4 |
| 20260906122005 | 62 | 94 | 0.0 | 1.0 | 0.00 | 0.00 | 0.00 | 96 | 1018.4 |
| 20260906121541 | 61 | 96 | 0.0 | 1.0 | 0.00 | 0.00 | 0.00 | 96 | 1018.3 |
| 20260906121019 | 61 | 64 | 0.0 | 1.0 | 0.00 | 0.00 | 0.00 | 96 | 1018.3 |
| 20260906120545 | 61 | 63 | 0.0 | 1.0 | 0.00 | 0.00 | 0.00 | 96 | 1018.3 |
| 20260906120022 | 61 | 36 | 0.0 | 0.0 | 0.00 | 0.00 | 0.00 | 96 | 1018.3 |
| 20260906115548 | 61 | 36 | 0.0 | 0.0 | 0.00 | 0.00 | 0.00 | 96 | 1018.2 |
| 20260906115017 | 61 | 36 | 0.0 | 0.0 | 0.00 | 0.00 | 0.00 | 96 | 1018.1 |
| 20260906114554 | 61 | 36 | 0.0 | 0.0 | 0.00 | 0.00 | 0.00 | 96 | 1018.2 |
| 20260906114012 | 61 | 36 | 0.0 | 0.0 | 0.00 | 0.00 | 0.00 | 96 | 1018.2 |
| 20260906113534 | 61 | 41 | 0.0 | 0.0 | 0.00 | 0.00 | 0.00 | 96 | 1018.1 |
| 20260906113011 | 61 | 41 | 0.0 | 0.0 | 0.00 | 0.00 | 0.00 | 96 | 1017.9 |
| 20260906112540 | 61 | 41 | 0.0 | 0.0 | 0.00 | 0.00 | 0.00 | 96 | 1017.8 |
| 20260906112018 | 61 | 41 | 0.0 | 0.0 | 0.00 | 0.00 | 0.00 | 96 | 1017.5 |
| 20260906111557 | 61 | 41 | 0.0 | 0.0 | 0.00 | 0.00 | 0.00 | 96 | 1017.4 |
| 20260906111505 | 61 | 41 | 0.0 | 0.0 | 0.00 | 0.00 | 0.00 | 96 | 1017.4 |
| 20260906111040 | 61 | 41 | 0.0 | 0.0 | 0.00 | 0.00 | 0.00 | 96 | 1017.4 |
| 20260906110559 | 61 | 41 | 0.0 | 0.0 | 0.00 | 0.00 | 0.00 | 96 | 1017.2 |
| 20260906110016 | 61 | 41 | 0.0 | 0.0 | 0.00 | 0.00 | 0.00 | 96 | 1017.3 |
| 20260906105548 | 61 | 41 | 0.0 | 0.0 | 0.00 | 0.00 | 0.00 | 96 | 1017.2 |
| 20260906105027 | 61 | 41 | 0.0 | 0.0 | 0.00 | 0.00 | 0.00 | 96 | 1017.3 |
| 20260906104507 | 61 | 41 | 0.0 | 0.0 | 0.00 | 0.00 | 0.00 | 96 | 1017.3 |
| 20260906104048 | 61 | 41 | 0.0 | 0.0 | 0.00 | 0.00 | 0.00 | 95 | 1017.2 |
| 20260906103514 | 61 | 41 | 0.0 | 0.0 | 0.00 | 0.00 | 0.00 | 96 | 1017.4 |
| 20260906103048 | 61 | 41 | 0.0 | 0.0 | 0.00 | 0.00 | 0.00 | 95 | 1017.3 |
| 20260906102523 | 61 | 41 | 0.0 | 0.0 | 0.00 | 0.00 | 0.00 | 95 | 1017.3 |
| 20260906102058 | 61 | 41 | 0.0 | 0.0 | 0.00 | 0.00 | 0.00 | 95 | 1017.2 |
| 20260906102008 | 61 | 41 | 0.0 | 0.0 | 0.00 | 0.00 | 0.00 | 95 | 1017.2 |
| 20260906101542 | 61 | 41 | 0.0 | 0.0 | 0.00 | 0.00 | 0.00 | 95 | 1017.1 |
| 20260906101002 | 62 | 41 | 0.0 | 0.0 | 0.00 | 0.00 | 0.00 | 95 | 1017.1 |
| 20260906100528 | 62 | 41 | 0.0 | 0.0 | 0.00 | 0.00 | 0.00 | 95 | 1017.0 |
| 20260906100100 | 62 | 41 | 0.0 | 0.0 | 0.00 | 0.00 | 0.00 | 95 | 1017.0 |
| 20260906100004 | 62 | 41 | 0.0 | 0.0 | 0.00 | 0.00 | 0.00 | 95 | 1017.1 |
| 20260906095542 | 62 | 41 | 0.0 | 0.0 | 0.00 | 0.00 | 0.00 | 96 | 1017.1 |
| 20260906095022 | 62 | 41 | 0.0 | 0.0 | 0.00 | 0.00 | 0.00 | 95 | 1017.1 |
| 20260906094602 | 62 | 41 | 0.0 | 0.0 | 0.00 | 0.00 | 0.00 | 96 | 1017.1 |
| 20260906094040 | 62 | 41 | 0.0 | 0.0 | 0.00 | 0.00 | 0.00 | 96 | 1017.1 |
| 20260906093519 | 62 | 41 | 0.0 | 0.0 | 0.00 | 0.00 | 0.00 | 96 | 1017.2 |
| 20260906093043 | 62 | 41 | 0.0 | 0.0 | 0.00 | 0.00 | 0.00 | 95 | 1017.2 |
| 20260906092522 | 62 | 41 | 0.0 | 0.0 | 0.00 | 0.00 | 0.00 | 96 | 1017.3 |
| 20260906092048 | 62 | 41 | 0.0 | 0.0 | 0.00 | 0.00 | 0.00 | 95 | 1017.3 |
| 20260906091532 | 62 | 41 | 0.0 | 0.0 | 0.00 | 0.00 | 0.00 | 95 | 1017.2 |
| 20260906091016 | 62 | 41 | 0.0 | 0.0 | 0.00 | 0.00 | 0.00 | 95 | 1017.1 |
| 20260906090535 | 62 | 41 | 0.0 | 0.0 | 0.00 | 0.00 | 0.00 | 95 | 1017.2 |
| 20260906090004 | 62 | 41 | 0.0 | 0.0 | 0.00 | 0.00 | 0.00 | 95 | 1017.2 |
| 20260906085526 | 62 | 41 | 0.0 | 0.0 | 0.00 | 0.00 | 0.00 | 95 | 1017.1 |
| 20260906085004 | 62 | 41 | 0.0 | 0.0 | 0.00 | 0.00 | 0.00 | 95 | 1017.1 |
| 20260906084542 | 62 | 41 | 0.0 | 0.0 | 0.00 | 0.00 | 0.00 | 95 | 1017.1 |
| 20260906084030 | 62 | 41 | 0.0 | 0.0 | 0.00 | 0.00 | 0.00 | 95 | 1017.1 |
| 20260906083550 | 62 | 41 | 0.0 | 0.0 | 0.00 | 0.00 | 0.00 | 95 | 1017.2 |
| 20260906083010 | 62 | 41 | 0.0 | 0.0 | 0.00 | 0.00 | 0.00 | 95 | 1017.0 |
| 20260906082536 | 62 | 41 | 0.0 | 0.0 | 0.00 | 0.00 | 0.00 | 95 | 1016.9 |
| 20260906082051 | 62 | 41 | 0.0 | 0.0 | 0.00 | 0.00 | 0.00 | 95 | 1016.7 |
| 20260906081531 | 62 | 41 | 0.0 | 0.0 | 0.00 | 0.00 | 0.00 | 95 | 1016.8 |
| 20260906081021 | 62 | 41 | 0.0 | 0.0 | 0.00 | 0.00 | 0.00 | 95 | 1016.8 |
| 20260906080541 | 62 | 41 | 0.0 | 0.0 | 0.00 | 0.00 | 0.00 | 95 | 1016.8 |
| 20260906080059 | 62 | 41 | 0.0 | 0.0 | 0.00 | 0.00 | 0.00 | 95 | 1016.8 |
| 20260906075522 | 62 | 41 | 0.0 | 0.0 | 0.00 | 0.00 | 0.00 | 95 | 1016.7 |
| 20260906075058 | 62 | 41 | 0.0 | 0.0 | 0.00 | 0.00 | 0.00 | 95 | 1016.8 |
| 20260906074522 | 63 | 41 | 0.0 | 0.0 | 0.00 | 0.00 | 0.00 | 95 | 1016.8 |
| 20260906074057 | 63 | 41 | 0.0 | 0.0 | 0.00 | 0.00 | 0.00 | 95 | 1016.8 |
| 20260906073538 | 63 | 41 | 0.0 | 0.0 | 0.00 | 0.00 | 0.00 | 95 | 1016.8 |
| 20260906073018 | 63 | 41 | 0.0 | 0.0 | 0.00 | 0.00 | 0.00 | 95 | 1016.7 |
| 20260906072540 | 63 | 41 | 0.0 | 0.0 | 0.00 | 0.00 | 0.00 | 94 | 1016.9 |
| 20260906072019 | 63 | 41 | 0.0 | 0.0 | 0.00 | 0.00 | 0.00 | 94 | 1016.9 |
| 20260906071542 | 63 | 41 | 0.0 | 0.0 | 0.00 | 0.00 | 0.00 | 94 | 1016.8 |
| 20260906071009 | 63 | 41 | 0.0 | 0.0 | 0.00 | 0.00 | 0.00 | 94 | 1017.0 |
| 20260906070546 | 63 | 41 | 0.0 | 0.0 | 0.00 | 0.00 | 0.00 | 94 | 1017.0 |
| 20260906070018 | 63 | 41 | 0.0 | 0.0 | 0.00 | 0.00 | 0.00 | 95 | 1017.1 |
| 20260906065545 | 63 | 41 | 0.0 | 0.0 | 0.00 | 0.00 | 0.00 | 94 | 1017.2 |
| 20260906065022 | 63 | 41 | 0.0 | 0.0 | 0.00 | 0.00 | 0.00 | 94 | 1017.0 |
| 20260906064544 | 63 | 41 | 0.0 | 0.0 | 0.00 | 0.00 | 0.00 | 94 | 1017.1 |
| 20260906064004 | 64 | 41 | 0.0 | 0.0 | 0.00 | 0.00 | 0.00 | 94 | 1017.1 |
| 20260906063541 | 64 | 41 | 0.0 | 0.0 | 0.00 | 0.00 | 0.00 | 94 | 1017.1 |
| 20260906063006 | 64 | 41 | 0.0 | 0.0 | 0.00 | 0.00 | 0.00 | 94 | 1017.2 |
| 20260906062534 | 64 | 41 | 0.0 | 0.0 | 0.00 | 0.00 | 0.00 | 94 | 1017.2 |
| 20260906062050 | 64 | 41 | 0.0 | 0.0 | 0.00 | 0.00 | 0.00 | 94 | 1017.2 |
| 20260906061532 | 64 | 41 | 0.0 | 0.0 | 0.00 | 0.00 | 0.00 | 94 | 1017.2 |
| 20260906061100 | 64 | 41 | 0.0 | 0.0 | 0.00 | 0.00 | 0.00 | 94 | 1017.3 |
| 20260906061003 | 64 | 41 | 0.0 | 0.0 | 0.00 | 0.00 | 0.00 | 94 | 1017.2 |
| 20260906060520 | 64 | 41 | 0.0 | 0.0 | 0.00 | 0.00 | 0.00 | 94 | 1017.2 |
| 20260906060052 | 64 | 41 | 0.0 | 0.0 | 0.00 | 0.00 | 0.00 | 94 | 1017.1 |
| 20260906055525 | 64 | 41 | 0.0 | 0.0 | 0.00 | 0.00 | 0.00 | 93 | 1017.1 |
| 20260906055047 | 64 | 41 | 0.0 | 0.0 | 0.00 | 0.00 | 0.00 | 93 | 1017.1 |
| 20260906054508 | 65 | 41 | 0.0 | 0.0 | 0.00 | 0.00 | 0.00 | 93 | 1017.0 |
| 20260906054032 | 65 | 41 | 0.0 | 0.0 | 0.00 | 0.00 | 0.00 | 93 | 1017.0 |
| 20260906053547 | 65 | 41 | 0.0 | 0.0 | 0.00 | 0.00 | 0.00 | 93 | 1017.0 |
| 20260906053032 | 65 | 41 | 0.0 | 0.0 | 0.00 | 0.00 | 0.00 | 93 | 1017.0 |
| 20260906052548 | 65 | 41 | 0.0 | 0.0 | 0.00 | 0.00 | 0.00 | 92 | 1016.9 |
| 20260906052008 | 65 | 41 | 0.0 | 0.0 | 0.00 | 0.00 | 0.00 | 92 | 1016.9 |
| 20260906051545 | 66 | 41 | 0.0 | 0.0 | 0.00 | 0.00 | 0.00 | 92 | 1017.0 |
| 20260906051024 | 66 | 41 | 0.0 | 0.0 | 0.00 | 0.00 | 0.00 | 92 | 1017.0 |
| 20260906050557 | 66 | 41 | 0.0 | 0.0 | 0.00 | 0.00 | 0.00 | 92 | 1016.9 |
| 20260906050028 | 66 | 41 | 0.0 | 0.0 | 0.00 | 0.00 | 0.00 | 92 | 1016.7 |
| 20260906045557 | 66 | 45 | 0.0 | 2.0 | 0.00 | 0.00 | 0.00 | 92 | 1016.7 |
| 20260906045017 | 66 | 45 | 0.0 | 1.0 | 0.00 | 0.00 | 0.00 | 92 | 1016.7 |
| 20260906044544 | 66 | 20 | 0.0 | 0.0 | 0.00 | 0.00 | 0.00 | 92 | 1016.8 |
| 20260906044023 | 66 | 345 | 0.0 | 0.0 | 0.00 | 0.00 | 0.00 | 92 | 1016.7 |
| 20260906043544 | 66 | 345 | 0.0 | 0.0 | 0.00 | 0.00 | 0.00 | 92 | 1016.7 |
| 20260906043100 | 67 | 345 | 0.0 | 1.0 | 0.00 | 0.00 | 0.00 | 91 | 1016.7 |
| 20260906043021 | 67 | 345 | 0.0 | 1.0 | 0.00 | 0.00 | 0.00 | 91 | 1016.8 |
| 20260906042533 | 67 | 344 | 0.0 | 1.0 | 0.00 | 0.00 | 0.00 | 91 | 1016.8 |
| 20260906042012 | 67 | 82 | 0.0 | 0.0 | 0.00 | 0.00 | 0.00 | 91 | 1016.7 |
| 20260906041536 | 67 | 82 | 0.0 | 0.0 | 0.00 | 0.00 | 0.00 | 90 | 1016.6 |
| 20260906041053 | 67 | 82 | 0.0 | 0.0 | 0.00 | 0.00 | 0.00 | 90 | 1016.5 |
| 20260906040528 | 68 | 82 | 0.0 | 0.0 | 0.00 | 0.00 | 0.00 | 90 | 1016.4 |
| 20260906040058 | 68 | 82 | 0.0 | 1.0 | 0.00 | 0.00 | 0.00 | 90 | 1016.3 |
| 20260906040005 | 68 | 82 | 0.0 | 1.0 | 0.00 | 0.00 | 0.00 | 90 | 1016.3 |
| 20260906035544 | 68 | 89 | 0.0 | 2.0 | 0.00 | 0.00 | 0.00 | 90 | 1016.2 |
| 20260906035014 | 68 | 98 | 0.0 | 2.0 | 0.00 | 0.00 | 0.00 | 91 | 1016.1 |
| 20260906034600 | 68 | 133 | 0.0 | 2.0 | 0.00 | 0.00 | 0.00 | 90 | 1016.2 |
| 20260906034025 | 68 | 111 | 0.0 | 1.0 | 0.00 | 0.00 | 0.00 | 90 | 1016.2 |
| 20260906033600 | 68 | 70 | 0.0 | 4.0 | 0.00 | 0.00 | 0.00 | 90 | 1016.3 |
| 20260906033501 | 68 | 70 | 0.0 | 4.0 | 0.00 | 0.00 | 0.00 | 90 | 1016.3 |
| 20260906033020 | 69 | 65 | 0.0 | 4.0 | 0.00 | 0.00 | 0.00 | 90 | 1016.3 |
| 20260906032541 | 69 | 136 | 0.0 | 2.0 | 0.00 | 0.00 | 0.00 | 89 | 1016.3 |
| 20260906032020 | 69 | 129 | 0.0 | 2.0 | 0.00 | 0.00 | 0.00 | 89 | 1016.3 |
| 20260906031541 | 69 | 55 | 0.0 | 2.0 | 0.00 | 0.00 | 0.00 | 89 | 1016.2 |
| 20260906031024 | 69 | 112 | 0.0 | 1.0 | 0.00 | 0.00 | 0.00 | 88 | 1016.2 |
| 20260906030600 | 70 | 81 | 0.0 | 3.0 | 0.00 | 0.00 | 0.00 | 88 | 1016.2 |
| 20260906030503 | 70 | 81 | 0.0 | 3.0 | 0.00 | 0.00 | 0.00 | 88 | 1016.2 |
| 20260906030041 | 70 | 101 | 0.0 | 3.0 | 0.00 | 0.00 | 0.00 | 88 | 1016.1 |
| 20260906025558 | 70 | 51 | 0.0 | 2.0 | 0.00 | 0.00 | 0.00 | 88 | 1016.1 |
| 20260906025043 | 70 | 72 | 0.0 | 5.0 | 0.00 | 0.00 | 0.00 | 88 | 1015.9 |
| 20260906024603 | 70 | 87 | 1.0 | 5.0 | 0.00 | 0.00 | 0.00 | 88 | 1016.0 |
| 20260906024024 | 70 | 48 | 0.0 | 2.0 | 0.00 | 0.00 | 0.00 | 88 | 1015.9 |
| 20260906023558 | 71 | 117 | 0.0 | 2.0 | 0.00 | 0.00 | 0.00 | 87 | 1015.7 |
| 20260906023028 | 71 | 124 | 0.0 | 4.0 | 0.00 | 0.00 | 0.00 | 87 | 1015.7 |
| 20260906022556 | 71 | 38 | 0.0 | 5.0 | 0.00 | 0.00 | 0.00 | 87 | 1015.6 |
| 20260906022030 | 71 | 54 | 1.0 | 5.0 | 0.00 | 0.00 | 0.00 | 87 | 1015.5 |
| 20260906021602 | 71 | 137 | 1.0 | 9.0 | 0.00 | 0.00 | 0.00 | 86 | 1015.6 |
| 20260906021508 | 71 | 124 | 1.0 | 9.0 | 0.00 | 0.00 | 0.00 | 86 | 1015.6 |
| 20260906021042 | 72 | 108 | 2.0 | 9.0 | 0.00 | 0.00 | 0.00 | 86 | 1015.5 |
| 20260906020516 | 72 | 84 | 0.0 | 5.0 | 0.00 | 0.00 | 0.00 | 86 | 1015.3 |
| 20260906020053 | 72 | 160 | 1.0 | 5.0 | 0.00 | 0.00 | 0.00 | 86 | 1015.3 |
| 20260906015519 | 72 | 77 | 0.0 | 6.0 | 0.00 | 0.00 | 0.00 | 86 | 1015.1 |
| 20260906015052 | 72 | 60 | 2.0 | 6.0 | 0.00 | 0.00 | 0.00 | 86 | 1015.0 |
| 20260906014516 | 73 | 113 | 1.0 | 6.0 | 0.00 | 0.00 | 0.00 | 86 | 1014.9 |
| 20260906014043 | 73 | 104 | 0.0 | 4.0 | 0.00 | 0.00 | 0.00 | 86 | 1014.9 |
| 20260906013525 | 73 | 97 | 0.0 | 5.0 | 0.00 | 0.00 | 0.00 | 86 | 1014.7 |
| 20260906013055 | 73 | 59 | 1.0 | 5.0 | 0.00 | 0.00 | 0.00 | 86 | 1014.8 |
| 20260906012537 | 73 | 55 | 1.0 | 3.0 | 0.00 | 0.00 | 0.00 | 86 | 1014.7 |
| 20260906012008 | 73 | 100 | 0.0 | 3.0 | 0.00 | 0.00 | 0.00 | 86 | 1014.7 |
| 20260906011540 | 73 | 92 | 0.0 | 4.0 | 0.00 | 0.00 | 0.00 | 85 | 1014.6 |
| 20260906011018 | 73 | 56 | 0.0 | 3.0 | 0.00 | 0.00 | 0.00 | 85 | 1014.6 |
| 20260906010551 | 73 | 73 | 0.0 | 3.0 | 0.00 | 0.00 | 0.00 | 85 | 1014.6 |
| 20260906010037 | 73 | 82 | 0.0 | 3.0 | 0.00 | 0.00 | 0.00 | 85 | 1014.6 |
| 20260906005551 | 73 | 70 | 0.0 | 3.0 | 0.00 | 0.00 | 0.00 | 85 | 1014.8 |
| 20260906005038 | 73 | 49 | 0.0 | 2.0 | 0.00 | 0.00 | 0.00 | 85 | 1014.7 |
| 20260906004608 | 73 | 46 | 0.0 | 2.0 | 0.00 | 0.00 | 0.00 | 85 | 1014.8 |
| 20260906004035 | 73 | 77 | 0.0 | 1.0 | 0.00 | 0.00 | 0.00 | 84 | 1014.7 |
| 20260906003550 | 74 | 61 | 0.0 | 1.0 | 0.00 | 0.00 | 0.00 | 84 | 1014.8 |
| 20260906003010 | 74 | 61 | 0.0 | 2.0 | 0.00 | 0.00 | 0.00 | 83 | 1014.8 |
| 20260906002532 | 74 | 61 | 0.0 | 2.0 | 0.00 | 0.00 | 0.00 | 83 | 1015.0 |
| 20260906002012 | 74 | 62 | 0.0 | 2.0 | 0.00 | 0.00 | 0.00 | 83 | 1014.9 |
| 20260906001546 | 74 | 82 | 0.0 | 2.0 | 0.00 | 0.00 | 0.00 | 83 | 1014.8 |
| 20260906001009 | 74 | 93 | 0.0 | 4.0 | 0.00 | 0.00 | 0.00 | 82 | 1014.8 |
| 20260906000531 | 75 | 131 | 1.0 | 4.0 | 0.00 | 0.00 | 0.00 | 82 | 1014.8 |
| 20260906000014 | 75 | 20 | 1.0 | 3.0 | 0.00 | 0.00 | 0.00 | 82 | 1014.8 |
| 20260905235553 | 75 | 72 | 0.0 | 3.0 | 0.00 | 0.00 | 0.00 | 81 | 1014.9 |
| 20260905235033 | 75 | 78 | 0.0 | 3.0 | 0.00 | 0.00 | 0.00 | 81 | 1014.8 |
| 20260905234514 | 76 | 75 | 0.0 | 5.0 | 0.00 | 0.00 | 0.00 | 80 | 1014.8 |
| 20260905234052 | 76 | 142 | 0.0 | 8.0 | 0.00 | 0.00 | 0.00 | 79 | 1014.8 |
| 20260905233534 | 76 | 56 | 0.0 | 8.0 | 0.00 | 0.00 | 0.00 | 78 | 1014.9 |
| 20260905233015 | 77 | 78 | 0.0 | 9.0 | 0.00 | 0.00 | 0.00 | 78 | 1014.9 |
| 20260905232551 | 77 | 94 | 0.0 | 9.0 | 0.00 | 0.00 | 0.00 | 77 | 1014.8 |
| 20260905232029 | 78 | 94 | 0.0 | 4.0 | 0.00 | 0.00 | 0.00 | 77 | 1014.8 |
| 20260905231513 | 78 | 39 | 1.0 | 4.0 | 0.00 | 0.00 | 0.00 | 76 | 1014.8 |
| 20260905231031 | 78 | 73 | 1.0 | 5.0 | 0.00 | 0.00 | 0.00 | 76 | 1014.8 |
| 20260905230505 | 78 | 20 | 0.0 | 4.0 | 0.00 | 0.00 | 0.00 | 75 | 1014.7 |
| 20260905230045 | 78 | 42 | 0.0 | 6.0 | 0.00 | 0.00 | 0.00 | 75 | 1014.7 |
| 20260905225559 | 78 | 36 | 0.0 | 8.0 | 0.00 | 0.00 | 0.00 | 74 | 1014.8 |
| 20260905225501 | 78 | 358 | 0.0 | 8.0 | 0.00 | 0.00 | 0.00 | 73 | 1014.8 |
| 20260905225041 | 78 | 34 | 2.0 | 8.0 | 0.00 | 0.00 | 0.00 | 72 | 1014.7 |
| 20260905224512 | 79 | 37 | 1.0 | 4.0 | 0.00 | 0.00 | 0.00 | 74 | 1014.8 |
| 20260905224033 | 79 | 101 | 0.0 | 4.0 | 0.00 | 0.00 | 0.00 | 76 | 1014.7 |
| 20260905223511 | 79 | 3 | 1.0 | 5.0 | 0.00 | 0.00 | 0.00 | 75 | 1014.7 |
| 20260905223054 | 79 | 94 | 1.0 | 8.0 | 0.00 | 0.00 | 0.00 | 75 | 1014.6 |
| 20260905222509 | 79 | 55 | 3.0 | 8.0 | 0.00 | 0.00 | 0.00 | 75 | 1014.7 |
| 20260905222045 | 80 | 112 | 2.0 | 7.0 | 0.00 | 0.00 | 0.00 | 73 | 1014.7 |
| 20260905221524 | 80 | 326 | 1.0 | 8.0 | 0.00 | 0.00 | 0.00 | 73 | 1014.5 |
| 20260905221045 | 80 | 20 | 2.0 | 7.0 | 0.00 | 0.00 | 0.00 | 74 | 1014.3 |
| 20260905220524 | 80 | 47 | 1.0 | 7.0 | 0.00 | 0.00 | 0.00 | 74 | 1014.2 |
| 20260905220011 | 80 | 32 | 3.0 | 7.0 | 0.00 | 0.00 | 0.00 | 73 | 1014.2 |
| 20260905215547 | 80 | 19 | 3.0 | 7.0 | 0.00 | 0.00 | 0.00 | 74 | 1014.2 |
| 20260905215014 | 80 | 354 | 0.0 | 7.0 | 0.00 | 0.00 | 0.00 | 74 | 1014.2 |
| 20260905214544 | 80 | 33 | 2.0 | 8.0 | 0.00 | 0.00 | 0.00 | 74 | 1014.3 |
| 20260905214035 | 79 | 53 | 2.0 | 8.0 | 0.00 | 0.00 | 0.00 | 75 | 1014.4 |
| 20260905213513 | 79 | 79 | 0.0 | 4.0 | 0.00 | 0.00 | 0.00 | 76 | 1014.4 |
| 20260905213039 | 78 | 109 | 0.0 | 5.0 | 0.00 | 0.00 | 0.00 | 77 | 1014.4 |
| 20260905212521 | 78 | 49 | 1.0 | 5.0 | 0.00 | 0.00 | 0.00 | 76 | 1014.4 |
| 20260905212039 | 78 | 49 | 0.0 | 3.0 | 0.00 | 0.00 | 0.00 | 76 | 1014.5 |
| 20260905211606 | 79 | 330 | 1.0 | 4.0 | 0.00 | 0.00 | 0.00 | 75 | 1014.4 |
| 20260905211039 | 79 | 322 | 1.0 | 4.0 | 0.00 | 0.00 | 0.00 | 75 | 1014.4 |
| 20260905210559 | 79 | 84 | 0.0 | 4.0 | 0.00 | 0.00 | 0.00 | 74 | 1014.4 |
| 20260905210501 | 79 | 99 | 1.0 | 5.0 | 0.00 | 0.00 | 0.00 | 75 | 1014.4 |
| 20260905210033 | 79 | 56 | 0.0 | 5.0 | 0.00 | 0.00 | 0.00 | 74 | 1014.4 |
| 20260905205603 | 80 | 50 | 1.0 | 5.0 | 0.00 | 0.00 | 0.00 | 73 | 1014.5 |
| 20260905205501 | 80 | 44 | 0.0 | 3.0 | 0.00 | 0.00 | 0.00 | 73 | 1014.6 |
| 20260905205019 | 79 | 101 | 0.0 | 5.0 | 0.00 | 0.00 | 0.00 | 73 | 1014.6 |
| 20260905204541 | 80 | 84 | 1.0 | 5.0 | 0.00 | 0.00 | 0.00 | 73 | 1014.6 |
| 20260905204020 | 79 | 88 | 0.0 | 6.0 | 0.00 | 0.00 | 0.00 | 73 | 1014.6 |
| 20260905203539 | 79 | 46 | 1.0 | 6.0 | 0.00 | 0.00 | 0.00 | 72 | 1014.6 |
| 20260905203057 | 79 | 146 | 0.0 | 4.0 | 0.00 | 0.00 | 0.00 | 73 | 1014.6 |
| 20260905202534 | 80 | 89 | 2.0 | 6.0 | 0.00 | 0.00 | 0.00 | 72 | 1014.5 |
| 20260905202005 | 80 | 70 | 0.0 | 7.0 | 0.00 | 0.00 | 0.00 | 72 | 1014.5 |
| 20260905201537 | 80 | 51 | 3.0 | 10.0 | 0.00 | 0.00 | 0.00 | 70 | 1014.4 |
| 20260905201009 | 80 | 306 | 3.0 | 10.0 | 0.00 | 0.00 | 0.00 | 70 | 1014.4 |
| 20260905200543 | 80 | 2 | 2.0 | 7.0 | 0.00 | 0.00 | 0.00 | 69 | 1014.3 |
| 20260905200023 | 81 | 110 | 3.0 | 7.0 | 0.00 | 0.00 | 0.00 | 71 | 1014.4 |
| 20260905195549 | 80 | 185 | 1.0 | 9.0 | 0.00 | 0.00 | 0.00 | 73 | 1014.4 |
| 20260905195035 | 79 | 359 | 3.0 | 10.0 | 0.00 | 0.00 | 0.00 | 74 | 1014.4 |
| 20260905194601 | 79 | 60 | 3.0 | 10.0 | 0.00 | 0.00 | 0.00 | 74 | 1014.5 |
| 20260905194502 | 79 | 25 | 3.0 | 10.0 | 0.00 | 0.00 | 0.00 | 74 | 1014.6 |
| 20260905194037 | 80 | 115 | 3.0 | 9.0 | 0.00 | 0.00 | 0.00 | 74 | 1014.6 |
| 20260905193513 | 80 | 40 | 3.0 | 12.0 | 0.00 | 0.00 | 0.00 | 75 | 1014.7 |
| 20260905193049 | 80 | 125 | 3.0 | 12.0 | 0.00 | 0.00 | 0.00 | 74 | 1014.6 |
| 20260905192511 | 80 | 40 | 2.0 | 8.0 | 0.00 | 0.00 | 0.00 | 77 | 1014.6 |
| 20260905192034 | 79 | 335 | 4.0 | 11.0 | 0.00 | 0.00 | 0.00 | 78 | 1014.6 |
| 20260905191507 | 79 | 352 | 3.0 | 11.0 | 0.00 | 0.00 | 0.00 | 77 | 1014.6 |
| 20260905191043 | 79 | 93 | 1.0 | 7.0 | 0.00 | 0.00 | 0.00 | 77 | 1014.7 |
| 20260905190558 | 79 | 354 | 2.0 | 8.0 | 0.00 | 0.00 | 0.00 | 77 | 1014.6 |
| 20260905190501 | 79 | 133 | 1.0 | 8.0 | 0.00 | 0.00 | 0.00 | 78 | 1014.6 |
| 20260905190026 | 78 | 36 | 3.0 | 12.0 | 0.00 | 0.01 | 0.00 | 77 | 1014.8 |
| 20260905185600 | 79 | 58 | 4.0 | 12.0 | 0.00 | 0.01 | 0.00 | 77 | 1014.8 |
| 20260905185502 | 79 | 75 | 3.0 | 12.0 | 0.00 | 0.01 | 0.00 | 76 | 1014.8 |
| 20260905185041 | 80 | 25 | 2.0 | 9.0 | 0.00 | 0.01 | 0.00 | 76 | 1014.7 |
| 20260905184534 | 79 | 62 | 2.0 | 8.0 | 0.00 | 0.01 | 0.00 | 79 | 1014.6 |
| 20260905184046 | 78 | 95 | 3.0 | 8.0 | 0.00 | 0.01 | 0.00 | 78 | 1014.9 |
| 20260905183523 | 78 | 11 | 1.0 | 7.0 | 0.00 | 0.01 | 0.00 | 79 | 1014.9 |
| 20260905183051 | 77 | 70 | 1.0 | 7.0 | 0.00 | 0.01 | 0.00 | 80 | 1014.9 |
| 20260905182530 | 77 | 96 | 2.0 | 7.0 | 0.00 | 0.01 | 0.00 | 79 | 1015.1 |
| 20260905182009 | 77 | 70 | 1.0 | 7.0 | 0.00 | 0.01 | 0.00 | 80 | 1015.0 |
| 20260905181547 | 77 | 349 | 0.0 | 4.0 | 0.00 | 0.01 | 0.00 | 81 | 1015.0 |
| 20260905181011 | 76 | 51 | 1.0 | 7.0 | 0.00 | 0.01 | 0.00 | 82 | 1015.1 |
| 20260905180543 | 76 | 105 | 0.0 | 7.0 | 0.00 | 0.01 | 0.00 | 83 | 1015.1 |
| 20260905180007 | 76 | 29 | 0.0 | 8.0 | 0.00 | 0.01 | 0.00 | 84 | 1015.3 |
| 20260905175543 | 76 | 41 | 1.0 | 8.0 | 0.00 | 0.01 | 0.00 | 83 | 1015.2 |
| 20260905175003 | 76 | 17 | 0.0 | 5.0 | 0.00 | 0.01 | 0.00 | 84 | 1015.2 |
| 20260905174544 | 75 | 40 | 1.0 | 5.0 | 0.00 | 0.01 | 0.00 | 83 | 1015.3 |
| 20260905174006 | 75 | 91 | 0.0 | 4.0 | 0.00 | 0.01 | 0.00 | 83 | 1015.3 |
| 20260905173525 | 75 | 32 | 1.0 | 4.0 | 0.00 | 0.01 | 0.00 | 84 | 1015.3 |
| 20260905173003 | 75 | 72 | 1.0 | 8.0 | 0.00 | 0.01 | 0.00 | 84 | 1015.4 |
| 20260905172544 | 75 | 359 | 0.0 | 8.0 | 0.00 | 0.01 | 0.00 | 84 | 1015.4 |
| 20260905172003 | 75 | 63 | 0.0 | 7.0 | 0.00 | 0.01 | 0.00 | 85 | 1015.4 |
| 20260905171543 | 74 | 54 | 2.0 | 7.0 | 0.00 | 0.01 | 0.00 | 85 | 1015.3 |
| 20260905171011 | 74 | 60 | 2.0 | 8.0 | 0.00 | 0.01 | 0.00 | 85 | 1015.4 |
| 20260905170545 | 74 | 78 | 3.0 | 8.0 | 0.00 | 0.01 | 0.00 | 85 | 1015.4 |
| 20260905170005 | 74 | 256 | 1.0 | 8.0 | 0.00 | 0.01 | 0.00 | 85 | 1015.3 |
| 20260905165526 | 74 | 110 | 1.0 | 8.0 | 0.00 | 0.01 | 0.00 | 86 | 1015.4 |
| 20260905165008 | 73 | 343 | 1.0 | 7.0 | 0.00 | 0.01 | 0.00 | 87 | 1015.5 |
| 20260905164530 | 73 | 51 | 1.0 | 6.0 | 0.00 | 0.01 | 0.00 | 87 | 1015.5 |
| 20260905164045 | 73 | 62 | 2.0 | 6.0 | 0.00 | 0.01 | 0.00 | 87 | 1015.5 |
| 20260905163524 | 74 | 115 | 0.0 | 3.0 | 0.00 | 0.01 | 0.00 | 87 | 1015.5 |
| 20260905163043 | 74 | 25 | 0.0 | 3.0 | 0.00 | 0.01 | 0.00 | 87 | 1015.5 |
| 20260905162521 | 74 | 72 | 0.0 | 5.0 | 0.00 | 0.01 | 0.00 | 87 | 1015.4 |
| 20260905162042 | 73 | 119 | 0.0 | 5.0 | 0.00 | 0.01 | 0.00 | 88 | 1015.5 |
| 20260905161600 | 73 | 72 | 1.0 | 5.0 | 0.00 | 0.01 | 0.00 | 88 | 1015.5 |
| 20260905161509 | 73 | 65 | 1.0 | 5.0 | 0.00 | 0.01 | 0.00 | 87 | 1015.5 |
| 20260905161043 | 73 | 34 | 0.0 | 6.0 | 0.00 | 0.01 | 0.00 | 88 | 1015.5 |
| 20260905160518 | 73 | 120 | 1.0 | 5.0 | 0.00 | 0.01 | 0.00 | 87 | 1015.4 |
| 20260905160041 | 74 | 122 | 1.0 | 5.0 | 0.00 | 0.03 | 0.00 | 88 | 1015.4 |
| 20260905155519 | 73 | 94 | 0.0 | 5.0 | 0.00 | 0.03 | 0.00 | 88 | 1015.3 |
| 20260905155041 | 73 | 67 | 0.0 | 8.0 | 0.00 | 0.03 | 0.00 | 89 | 1015.3 |
| 20260905154604 | 73 | 7 | 0.0 | 3.0 | 0.00 | 0.03 | 0.00 | 89 | 1015.2 |
| 20260905154040 | 73 | 37 | 0.0 | 6.0 | 0.00 | 0.03 | 0.00 | 90 | 1015.2 |
| 20260905153601 | 73 | 46 | 2.0 | 6.0 | 0.00 | 0.03 | 0.00 | 89 | 1015.3 |
| 20260905153041 | 73 | 114 | 1.0 | 5.0 | 0.00 | 0.03 | 0.00 | 89 | 1015.2 |
| 20260905152601 | 73 | 70 | 1.0 | 4.0 | 0.00 | 0.03 | 0.00 | 90 | 1015.2 |
| 20260905152500 | 73 | 94 | 1.0 | 4.0 | 0.00 | 0.03 | 0.00 | 90 | 1015.2 |
| 20260905152041 | 73 | 51 | 1.0 | 4.0 | 0.00 | 0.03 | 0.00 | 90 | 1015.2 |
| 20260905151519 | 73 | 102 | 0.0 | 4.0 | 0.00 | 0.03 | 0.00 | 91 | 1015.2 |
| 20260905151041 | 72 | 11 | 0.0 | 5.0 | 0.00 | 0.03 | 0.00 | 91 | 1015.1 |
| 20260905150600 | 72 | 30 | 1.0 | 6.0 | 0.00 | 0.03 | 0.00 | 91 | 1015.0 |
| 20260905150511 | 72 | 37 | 1.0 | 6.0 | 0.00 | 0.03 | 0.00 | 91 | 1015.0 |
| 20260905150046 | 72 | 22 | 2.0 | 6.0 | 0.00 | 0.03 | 0.00 | 90 | 1015.0 |
| 20260905145502 | 72 | 81 | 0.0 | 5.0 | 0.00 | 0.03 | 0.00 | 91 | 1015.0 |
| 20260905145024 | 72 | 84 | 0.0 | 4.0 | 0.00 | 0.03 | 0.00 | 91 | 1014.9 |
| 20260905144601 | 72 | 53 | 1.0 | 4.0 | 0.00 | 0.03 | 0.00 | 91 | 1014.6 |
| 20260905144507 | 72 | 20 | 0.0 | 4.0 | 0.00 | 0.03 | 0.00 | 91 | 1014.7 |
| 20260905144021 | 72 | 84 | 0.0 | 5.0 | 0.00 | 0.03 | 0.00 | 91 | 1014.6 |
| 20260905143541 | 72 | 23 | 1.0 | 6.0 | 0.00 | 0.03 | 0.00 | 91 | 1014.6 |